Melfa, VA

12:32 PM EDT on September 21, 2017 (GMT -0400)
Accomack County

Weather History for KMFV - March, 2014

Change the Weather History Date:

Saturday, March 1, 2014

  Actual Average (KWAL) Record (KWAL)
Temperature  
Mean Temperature 35 °F -  
Max Temperature 46 °F 48 °F 79 °F (2017)
Min Temperature 24 °F 33 °F 14 °F (1980)
Degree Days  
Heating Degree Days 30    
Moisture  
Dew Point 24 °F    
Average Humidity 65    
Maximum Humidity 87    
Minimum Humidity 43    
Precipitation  
Precipitation 0.00 in - - ()
Sea Level Pressure  
Sea Level Pressure 30.31 in    
Wind  
Wind Speed 3 mph (ENE)    
Max Wind Speed 7 mph    
Max Gust Speed -    
Visibility 10 miles    
Events      
Averages and records for this station are not official NWS values.
T = Trace of Precipitation, MM = Missing Value Source: NWS Daily Summary

Daily Weather History Graph

Daily Weather History Graph

Search for Another Location

Airport or City:

Trip Planner

Search our weather history database for the weather conditions in past years. The results will help you decide how hot, cold, wet, or windy it might be!

Date:

Astronomy

Mar. 01, 2014 Rise Set
Actual Time 6:34 AM EST 5:56 PM EST
Civil Twilight 6:08 AM EST 6:23 PM EST
Nautical Twilight 5:37 AM EST 6:53 PM EST
Astronomical Twilight 5:07 AM EST 7:23 PM EST
Moon 6:27 AM EST (3/1) 6:39 PM EST (3/1)
Length of Visible Light 12h 14m
Length of Day
11h 22m
New Moon, 0% of the Moon is Illuminated
Mar 1
New Moon
Mar 8
First Quarter
Mar 16
Full
Mar 23
Last Quarter
Mar 30
New

Hourly Weather History & Observations

Time (EST) Temp. Windchill Dew Point Humidity Pressure Visibility Wind Dir Wind Speed Gust Speed Precip Events Conditions
12:16 AM 24.8 °F - 15.8 °F 69% 30.39 in 10.0 mi Calm Calm - N/A   Clear
12:36 AM 24.8 °F - 15.8 °F 69% 30.39 in 10.0 mi Calm Calm - N/A   Clear
12:56 AM 24.8 °F 19.1 °F 15.8 °F 69% 30.38 in 10.0 mi NNE 4.6 mph - N/A   Clear
1:16 AM 26.6 °F 21.2 °F 15.8 °F 64% 30.38 in 10.0 mi NNE 4.6 mph - N/A   Clear
1:36 AM 26.6 °F 22.6 °F 15.8 °F 64% 30.37 in 10.0 mi NNE 3.5 mph - N/A   Clear
1:56 AM 26.6 °F 22.6 °F 15.8 °F 64% 30.37 in 10.0 mi NNE 3.5 mph - N/A   Clear
2:16 AM 26.6 °F 22.6 °F 15.8 °F 64% 30.36 in 10.0 mi NNE 3.5 mph - N/A   Clear
2:36 AM 26.6 °F 22.6 °F 15.8 °F 64% 30.36 in 10.0 mi NNE 3.5 mph - N/A   Clear
2:56 AM 26.6 °F 22.6 °F 15.8 °F 64% 30.35 in 10.0 mi NNE 3.5 mph - N/A   Clear
3:16 AM 24.8 °F 19.1 °F 15.8 °F 69% 30.34 in 10.0 mi NE 4.6 mph - N/A   Clear
3:36 AM 26.6 °F 22.6 °F 15.8 °F 64% 30.34 in 10.0 mi NE 3.5 mph - N/A   Clear
3:56 AM 24.8 °F 17.9 °F 17.6 °F 74% 30.34 in 10.0 mi NE 5.8 mph - N/A   Clear
4:16 AM 26.6 °F 22.6 °F 17.6 °F 69% 30.34 in 10.0 mi NNE 3.5 mph - N/A   Clear
4:36 AM 26.6 °F 22.6 °F 15.8 °F 64% 30.34 in 10.0 mi NNE 3.5 mph - N/A   Clear
4:56 AM 26.6 °F - 17.6 °F 69% 30.35 in 10.0 mi Calm Calm - N/A   Clear
5:16 AM 24.8 °F - 17.6 °F 74% 30.35 in 10.0 mi Calm Calm - N/A   Clear
5:35 AM 24.8 °F 20.5 °F 17.6 °F 74% 30.36 in 10.0 mi North 3.5 mph - N/A   Clear
5:55 AM 24.8 °F - 17.6 °F 74% 30.36 in 10.0 mi Calm Calm - N/A   Clear
6:16 AM 24.8 °F - 17.6 °F 74% 30.36 in 10.0 mi Calm Calm - N/A   Clear
6:36 AM 26.6 °F 20.0 °F 17.6 °F 69% 30.36 in 10.0 mi NE 5.8 mph - N/A   Mostly Cloudy
6:56 AM 28.4 °F 21.2 °F 19.4 °F 69% 30.36 in 10.0 mi NNE 6.9 mph - N/A   Overcast
7:16 AM 28.4 °F 23.3 °F 19.4 °F 69% 30.36 in 10.0 mi NE 4.6 mph - N/A   Overcast
7:36 AM 30.2 °F 26.7 °F 21.2 °F 69% 30.36 in 10.0 mi North 3.5 mph - N/A   Overcast
7:56 AM 30.2 °F - 21.2 °F 69% 30.36 in 10.0 mi Calm Calm - N/A   Overcast
8:16 AM 33.8 °F 29.6 °F 23.0 °F 65% 30.36 in 10.0 mi NE 4.6 mph - N/A   Overcast
8:36 AM 33.8 °F 30.8 °F 24.8 °F 70% 30.37 in 10.0 mi North 3.5 mph - N/A   Overcast
8:56 AM 35.6 °F 31.7 °F 24.8 °F 65% 30.36 in 10.0 mi ENE 4.6 mph - N/A   Overcast
9:16 AM 35.6 °F 31.7 °F 26.6 °F 70% 30.35 in 10.0 mi NE 4.6 mph - N/A   Overcast
9:36 AM 37.4 °F - 26.6 °F 65% 30.37 in 10.0 mi Calm Calm - N/A   Overcast
9:56 AM 37.4 °F 34.9 °F 26.6 °F 65% 30.36 in 10.0 mi NE 3.5 mph - N/A   Overcast
10:16 AM 37.4 °F 33.8 °F 26.6 °F 65% 30.36 in 10.0 mi NNE 4.6 mph - N/A   Overcast
10:36 AM 37.4 °F - 26.6 °F 65% 30.36 in 10.0 mi Calm Calm - N/A   Overcast
10:56 AM 39.2 °F - 26.6 °F 61% 30.36 in 10.0 mi Calm Calm - N/A   Overcast
11:16 AM 39.2 °F - 26.6 °F 61% 30.36 in 10.0 mi Calm Calm - N/A   Overcast
11:36 AM 39.2 °F 35.0 °F 26.6 °F 61% 30.36 in 10.0 mi NW 5.8 mph - N/A   Light Drizzle
11:56 AM 39.2 °F - 26.6 °F 61% 30.35 in 10.0 mi Calm Calm - N/A   Overcast
12:16 PM 39.2 °F - 26.6 °F 61% 30.34 in 10.0 mi Calm Calm - N/A   Overcast
12:36 PM 39.2 °F 37.0 °F 28.4 °F 65% 30.32 in 10.0 mi WNW 3.5 mph - N/A   Mostly Cloudy
12:56 PM 39.2 °F 37.0 °F 28.4 °F 65% 30.31 in 10.0 mi WNW 3.5 mph - N/A   Overcast
1:16 PM 41.0 °F - 28.4 °F 61% 30.30 in 10.0 mi Calm Calm - N/A   Mostly Cloudy
1:36 PM 42.8 °F 40.1 °F 28.4 °F 57% 30.29 in 10.0 mi West 4.6 mph - N/A   Scattered Clouds
1:56 PM 42.8 °F 41.1 °F 28.4 °F 57% 30.28 in 10.0 mi WNW 3.5 mph - N/A   Mostly Cloudy
2:16 PM 42.8 °F - 26.6 °F 53% 30.27 in 10.0 mi Calm Calm - N/A   Overcast
2:36 PM 42.8 °F - 26.6 °F 53% 30.25 in 10.0 mi Calm Calm - N/A   Mostly Cloudy
2:56 PM 44.6 °F - 24.8 °F 46% 30.25 in 10.0 mi Calm Calm - N/A   Mostly Cloudy
3:16 PM 44.6 °F 43.1 °F 26.6 °F 49% 30.25 in 10.0 mi WNW 3.5 mph - N/A   Overcast
3:36 PM 44.6 °F 42.2 °F 26.6 °F 49% 30.25 in 10.0 mi WNW 4.6 mph - N/A   Overcast
3:56 PM 44.6 °F - 26.6 °F 49% 30.24 in 10.0 mi Calm Calm - N/A   Overcast
4:16 PM 44.6 °F - 26.6 °F 49% 30.25 in 10.0 mi Calm Calm - N/A   Mostly Cloudy
4:36 PM 44.6 °F - 26.6 °F 49% 30.25 in 10.0 mi Calm Calm - N/A   Mostly Cloudy
4:56 PM 44.6 °F - 26.6 °F 49% 30.26 in 10.0 mi Calm Calm - N/A   Mostly Cloudy
5:17 PM 46.4 °F 45.2 °F 24.8 °F 43% 30.24 in 10.0 mi South 3.5 mph - N/A   Scattered Clouds
5:37 PM 44.6 °F 43.1 °F 23.0 °F 43% 30.25 in 10.0 mi South 3.5 mph - N/A   Clear
5:56 PM 42.8 °F 41.1 °F 24.8 °F 49% 30.24 in 10.0 mi SSE 3.5 mph - N/A   Clear
6:16 PM 42.8 °F 41.1 °F 24.8 °F 49% 30.24 in 10.0 mi South 3.5 mph - N/A   Scattered Clouds
6:36 PM 39.2 °F 35.9 °F 26.6 °F 61% 30.24 in 10.0 mi SSE 4.6 mph - N/A   Mostly Cloudy
6:56 PM 41.0 °F 39.0 °F 26.6 °F 57% 30.24 in 10.0 mi South 3.5 mph - N/A   Mostly Cloudy
7:16 PM 41.0 °F 39.0 °F 28.4 °F 61% 30.24 in 10.0 mi South 3.5 mph - N/A   Mostly Cloudy
7:36 PM 41.0 °F 39.0 °F 30.2 °F 65% 30.24 in 10.0 mi SSE 3.5 mph - N/A   Mostly Cloudy
7:56 PM 41.0 °F 38.0 °F 30.2 °F 65% 30.23 in 10.0 mi SSE 4.6 mph - N/A   Overcast
8:16 PM 39.2 °F 37.0 °F 32.0 °F 75% 30.23 in 10.0 mi SSE 3.5 mph - N/A   Mostly Cloudy
8:36 PM 39.2 °F 35.9 °F 32.0 °F 75% 30.23 in 10.0 mi South 4.6 mph - N/A   Scattered Clouds
8:57 PM 39.2 °F 35.9 °F 32.0 °F 75% 30.23 in 10.0 mi South 4.6 mph - N/A   Clear
9:16 PM 39.2 °F 37.0 °F 33.8 °F 81% 30.24 in 10.0 mi South 3.5 mph - N/A   Scattered Clouds
9:36 PM 37.4 °F - 32.0 °F 81% 30.24 in 10.0 mi Calm Calm - N/A   Scattered Clouds
9:56 PM 37.4 °F - 30.2 °F 75% 30.24 in 10.0 mi Calm Calm - N/A   Clear
10:16 PM 35.6 °F - 30.2 °F 81% 30.24 in 10.0 mi Calm Calm - N/A   Clear
10:36 PM 35.6 °F 31.7 °F 30.2 °F 81% 30.23 in 10.0 mi South 4.6 mph - N/A   Clear
10:56 PM 33.8 °F 29.6 °F 30.2 °F 87% 30.22 in 10.0 mi South 4.6 mph - N/A   Clear
11:16 PM 33.8 °F 30.8 °F 30.2 °F 87% 30.22 in 10.0 mi South 3.5 mph - N/A   Clear
11:36 PM 33.8 °F 28.6 °F 30.2 °F 87% 30.22 in 10.0 mi South 5.8 mph - N/A   Clear
11:56 PM 33.8 °F 30.8 °F 30.2 °F 87% 30.22 in 10.0 mi South 3.5 mph - N/A   Clear